Radiation Dose at Monitoring Post of Fukushima Daini Nuclear Power Station
Date,Time,MP-1(microSv/h),MP-2(microSv/h),MP-3(microSv/h),MP-4(microSv/h),MP-5(microSv/h),MP-6(microSv/h),MP-7(microSv/h),Wind Direction,Wind Velocity(m/s),Rain
2019/04/17,00:00,0.203,0.187,0.305,0.285,0.273,0.153,0.092,south-southwest,4.1,No
2019/04/17,00:10,0.202,0.187,0.304,0.285,0.274,0.151,0.093,south,2.3,No
2019/04/17,00:20,0.202,0.186,0.305,0.285,0.274,0.153,0.093,south-southwest,4.8,No
2019/04/17,00:30,0.201,0.187,0.305,0.284,0.274,0.152,0.094,south-southwest,4.1,No
2019/04/17,00:40,0.202,0.187,0.304,0.285,0.273,0.153,0.093,south-southwest,3.5,No
2019/04/17,00:50,0.201,0.187,0.307,0.284,0.274,0.153,0.093,south-southwest,2.8,No
2019/04/17,01:00,0.203,0.187,0.303,0.283,0.273,0.153,0.093,southwest,4.0,No
2019/04/17,01:10,0.201,0.187,0.304,0.285,0.273,0.153,0.093,southwest,4.4,No
2019/04/17,01:20,0.200,0.187,0.305,0.284,0.274,0.153,0.093,southwest,4.1,No
2019/04/17,01:30,0.202,0.187,0.304,0.284,0.274,0.152,0.093,southwest,5.4,No
2019/04/17,01:40,0.202,0.185,0.305,0.285,0.274,0.152,0.092,southwest,4.9,No
2019/04/17,01:50,0.201,0.187,0.304,0.284,0.273,0.153,0.093,south-southwest,4.4,No
2019/04/17,02:00,0.202,0.187,0.305,0.284,0.274,0.152,0.094,south-southwest,4.4,No
2019/04/17,02:10,0.201,0.186,0.303,0.284,0.274,0.153,0.093,south-southwest,4.9,No
2019/04/17,02:20,0.202,0.186,0.304,0.284,0.273,0.153,0.093,south-southwest,6.2,No
2019/04/17,02:30,0.201,0.187,0.305,0.283,0.273,0.152,0.093,south-southwest,6.2,No
2019/04/17,02:40,0.202,0.186,0.304,0.283,0.274,0.152,0.093,south-southwest,6.2,No
2019/04/17,02:50,0.202,0.187,0.304,0.284,0.273,0.152,0.093,south-southwest,6.2,No
2019/04/17,03:00,0.201,0.186,0.303,0.284,0.274,0.152,0.093,south-southwest,6.0,No
2019/04/17,03:10,0.202,0.187,0.305,0.283,0.274,0.152,0.093,south-southwest,6.6,No
2019/04/17,03:20,0.202,0.187,0.303,0.285,0.274,0.151,0.092,south-southwest,6.4,No
2019/04/17,03:30,0.201,0.186,0.304,0.284,0.274,0.152,0.093,south-southwest,6.7,No
2019/04/17,03:40,0.202,0.185,0.305,0.284,0.274,0.153,0.093,south-southwest,7.3,No
2019/04/17,03:50,0.201,0.187,0.304,0.285,0.273,0.152,0.092,south-southwest,7.0,No
2019/04/17,04:00,0.203,0.186,0.304,0.285,0.274,0.151,0.092,south-southwest,6.7,No
2019/04/17,04:10,0.201,0.186,0.305,0.283,0.275,0.152,0.093,south-southwest,4.3,No
2019/04/17,04:20,0.203,0.187,0.304,0.283,0.272,0.151,0.092,west,1.6,No
2019/04/17,04:30,0.202,0.186,0.305,0.285,0.275,0.152,0.093,southwest,2.4,No
2019/04/17,04:40,0.201,0.187,0.306,0.286,0.274,0.153,0.093,southwest,2.8,No
2019/04/17,04:50,0.202,0.187,0.306,0.284,0.273,0.152,0.092,south,1.3,No
2019/04/17,05:00,0.203,0.187,0.305,0.284,0.275,0.153,0.093,south-southwest,2.1,No
2019/04/17,05:10,0.202,0.187,0.304,0.285,0.274,0.153,0.094,south-southwest,1.5,No
2019/04/17,05:20,0.202,0.187,0.306,0.284,0.273,0.153,0.092,-,CALM,No
2019/04/17,05:30,0.202,0.187,0.305,0.283,0.273,0.153,0.093,southwest,2.1,No
2019/04/17,05:40,0.203,0.187,0.303,0.283,0.273,0.153,0.093,southwest,2.4,No
2019/04/17,05:50,0.202,0.187,0.305,0.283,0.274,0.153,0.093,west-southwest,4.1,No
2019/04/17,06:00,0.201,0.187,0.305,0.283,0.274,0.152,0.093,west-southwest,4.1,No
2019/04/17,06:10,0.203,0.187,0.306,0.283,0.274,0.153,0.093,west-southwest,3.1,No
2019/04/17,06:20,0.201,0.188,0.304,0.283,0.272,0.153,0.093,southwest,2.3,No
2019/04/17,06:30,0.202,0.186,0.306,0.284,0.275,0.152,0.092,southwest,1.9,No
2019/04/17,06:40,0.203,0.188,0.304,0.282,0.273,0.153,0.092,south-southwest,1.6,No
2019/04/17,06:50,0.202,0.187,0.305,0.283,0.274,0.153,0.092,south-southeast,1.1,No
2019/04/17,07:00,0.202,0.187,0.305,0.283,0.275,0.153,0.093,south,1.5,No
2019/04/17,07:10,0.201,0.187,0.303,0.284,0.274,0.153,0.093,south-southwest,1.4,No
2019/04/17,07:20,0.202,0.186,0.303,0.285,0.275,0.152,0.093,south-southwest,2.0,No
2019/04/17,07:30,0.201,0.185,0.302,0.282,0.273,0.152,0.092,south,2.0,No
2019/04/17,07:40,0.203,0.185,0.304,0.285,0.273,0.152,0.094,south-southeast,2.7,No
2019/04/17,07:50,0.202,0.186,0.305,0.282,0.275,0.151,0.094,southeast,2.4,No
2019/04/17,08:00,0.202,0.186,0.303,0.283,0.274,0.152,0.093,south-southeast,2.6,No
2019/04/17,08:10,0.203,0.186,0.306,0.284,0.276,0.153,0.093,south,2.3,No
2019/04/17,08:20,0.201,0.186,0.305,0.281,0.273,0.152,0.093,south,2.3,No
2019/04/17,08:30,0.202,0.186,0.305,0.284,0.275,0.152,0.093,south-southeast,3.3,No
2019/04/17,08:40,0.201,0.187,0.304,0.281,0.272,0.152,0.092,south-southeast,3.9,No
2019/04/17,08:50,0.201,0.186,0.304,0.282,0.273,0.152,0.093,south,4.3,No
2019/04/17,09:00,0.201,0.186,0.305,0.283,0.275,0.151,0.093,south,4.1,No
2019/04/17,09:10,0.200,0.187,0.303,0.281,0.272,0.154,0.093,south-southeast,3.7,No
2019/04/17,09:20,0.201,0.185,0.304,0.282,0.275,0.153,0.093,south-southeast,5.3,No
2019/04/17,09:30,0.200,0.186,0.302,0.284,0.273,0.152,0.092,south-southeast,5.0,No
2019/04/17,09:40,0.202,0.186,0.304,0.282,0.272,0.153,0.093,south-southeast,5.9,No
2019/04/17,09:50,0.201,0.187,0.303,0.282,0.275,0.152,0.093,south-southeast,5.9,No
2019/04/17,10:00,0.203,0.186,0.306,0.285,0.272,0.153,0.093,south-southeast,7.3,No
2019/04/17,10:10,0.201,0.185,0.304,0.282,0.275,0.152,0.093,south-southeast,7.0,No
2019/04/17,10:20,0.202,0.187,0.305,0.284,0.274,0.152,0.092,south,9.3,No
2019/04/17,10:30,0.202,0.187,0.303,0.283,0.273,0.152,0.092,south-southeast,9.5,No
2019/04/17,10:40,0.200,0.186,0.305,0.282,0.276,0.151,0.092,south-southeast,7.7,No
2019/04/17,10:50,0.201,0.186,0.302,0.283,0.272,0.153,0.093,south-southeast,9.8,No
2019/04/17,11:00,0.200,0.185,0.304,0.284,0.273,0.151,0.092,south-southeast,11.1,No
2019/04/17,11:10,0.202,0.186,0.304,0.283,0.273,0.153,0.092,south-southeast,9.2,No
2019/04/17,11:20,0.201,0.185,0.302,0.283,0.272,0.151,0.093,south,9.5,No
2019/04/17,11:30,0.200,0.187,0.304,0.281,0.275,0.152,0.093,south,10.4,No
2019/04/17,11:40,0.203,0.186,0.304,0.285,0.274,0.152,0.092,south,11.2,No
2019/04/17,11:50,0.199,0.186,0.304,0.284,0.274,0.152,0.093,south-southeast,11.5,No
2019/04/17,12:00,0.202,0.186,0.304,0.285,0.275,0.151,0.092,south-southeast,11.5,No
2019/04/17,12:10,0.201,0.186,0.303,0.284,0.271,0.152,0.093,south,12.4,No
2019/04/17,12:20,0.201,0.187,0.305,0.284,0.275,0.152,0.092,south-southeast,12.2,No
2019/04/17,12:30,0.203,0.186,0.304,0.286,0.274,0.151,0.093,south-southeast,11.1,No
2019/04/17,12:40,0.200,0.187,0.304,0.282,0.273,0.152,0.092,south-southeast,12.3,No
2019/04/17,12:50,0.202,0.186,0.305,0.284,0.274,0.152,0.093,south,13.7,No
2019/04/17,13:00,0.202,0.187,0.303,0.283,0.272,0.153,0.093,south-southeast,13.4,No
2019/04/17,13:10,0.203,0.186,0.305,0.285,0.275,0.153,0.092,south-southeast,14.6,No
2019/04/17,13:20,0.202,0.187,0.303,0.283,0.273,0.153,0.093,south,14.7,No
2019/04/17,13:30,0.202,0.186,0.305,0.285,0.276,0.152,0.093,south-southeast,12.6,No
2019/04/17,13:40,0.202,0.187,0.305,0.284,0.273,0.153,0.093,south,12.9,No
2019/04/17,13:50,0.201,0.186,0.306,0.285,0.276,0.152,0.093,south,12.3,No
2019/04/17,14:00,0.202,0.188,0.304,0.283,0.274,0.152,0.093,south,12.9,No
2019/04/17,14:10,0.201,0.187,0.306,0.286,0.275,0.152,0.092,south,12.6,No
2019/04/17,14:20,0.202,0.187,0.303,0.283,0.274,0.153,0.092,south,11.8,No
2019/04/17,14:30,0.200,0.186,0.305,0.285,0.274,0.152,0.093,south,12.7,No
2019/04/17,14:40,0.201,0.187,0.303,0.284,0.276,0.152,0.092,south,11.7,No
2019/04/17,14:50,0.201,0.186,0.306,0.285,0.274,0.152,0.092,south,10.4,No
2019/04/17,15:00,0.202,0.187,0.305,0.284,0.276,0.152,0.093,south,10.7,No
2019/04/17,15:10,0.200,0.187,0.306,0.285,0.274,0.152,0.092,south,9.8,No
2019/04/17,15:20,0.204,0.186,0.304,0.284,0.276,0.152,0.093,south,9.8,No
2019/04/17,15:30,0.201,0.187,0.306,0.285,0.273,0.151,0.093,south,8.7,No
2019/04/17,15:40,0.202,0.186,0.303,0.283,0.275,0.152,0.093,south,7.7,No
2019/04/17,15:50,0.202,0.187,0.306,0.284,0.273,0.151,0.092,south,9.3,No
2019/04/17,16:00,0.203,0.187,0.302,0.287,0.275,0.152,0.093,south-southwest,7.4,No
2019/04/17,16:10,0.201,0.187,0.305,0.284,0.273,0.153,0.093,south,9.6,No
2019/04/17,16:20,0.202,0.186,0.304,0.285,0.277,0.152,0.092,south,8.8,No
2019/04/17,16:30,0.200,0.187,0.306,0.284,0.274,0.152,0.092,south-southwest,8.7,No
2019/04/17,16:40,0.202,0.186,0.304,0.286,0.277,0.152,0.093,south,6.8,No
2019/04/17,16:50,0.201,0.187,0.306,0.285,0.274,0.153,0.092,south,6.6,No
2019/04/17,17:00,0.202,0.186,0.306,0.285,0.276,0.152,0.093,south,8.4,No
2019/04/17,17:10,0.202,0.187,0.304,0.284,0.274,0.153,0.093,south,7.9,No
2019/04/17,17:20,0.202,0.188,0.304,0.284,0.275,0.152,0.093,south-southwest,10.0,No
2019/04/17,17:30,0.201,0.187,0.304,0.284,0.275,0.153,0.093,south,8.1,No
2019/04/17,17:40,0.202,0.187,0.306,0.284,0.274,0.152,0.093,south,7.0,No
2019/04/17,17:50,0.201,0.187,0.303,0.286,0.276,0.153,0.093,south,6.4,No
2019/04/17,18:00,0.201,0.187,0.306,0.284,0.273,0.152,0.093,south,7.7,No
2019/04/17,18:10,0.201,0.187,0.304,0.285,0.275,0.152,0.092,south,7.5,No
2019/04/17,18:20,0.201,0.186,0.305,0.285,0.274,0.152,0.092,south-southwest,7.1,No
2019/04/17,18:30,0.202,0.188,0.305,0.285,0.275,0.152,0.092,south-southwest,7.7,No
2019/04/17,18:40,0.201,0.187,0.305,0.284,0.274,0.151,0.092,south-southwest,7.1,No
2019/04/17,18:50,0.203,0.188,0.305,0.285,0.275,0.153,0.092,south-southwest,8.1,No
2019/04/17,19:00,0.200,0.187,0.304,0.286,0.275,0.152,0.092,south-southwest,7.7,No
2019/04/17,19:10,0.202,0.188,0.305,0.285,0.274,0.152,0.093,south-southwest,7.0,No
2019/04/17,19:20,0.201,0.188,0.302,0.286,0.275,0.152,0.093,south-southwest,6.5,No
2019/04/17,19:30,0.201,0.186,0.306,0.284,0.273,0.152,0.092,south,6.2,No
2019/04/17,19:40,0.201,0.187,0.304,0.285,0.276,0.153,0.093,south-southwest,6.7,No
2019/04/17,19:50,0.201,0.186,0.305,0.285,0.273,0.152,0.092,south,8.1,No
2019/04/17,20:00,0.202,0.187,0.306,0.285,0.275,0.153,0.093,south,7.3,No
2019/04/17,20:10,0.202,0.187,0.304,0.285,0.274,0.151,0.093,south,7.3,No
2019/04/17,20:20,0.202,0.186,0.305,0.285,0.274,0.152,0.093,south-southwest,7.0,No
2019/04/17,20:30,0.202,0.187,0.303,0.286,0.275,0.152,0.093,south-southwest,7.4,No
2019/04/17,20:40,0.202,0.187,0.305,0.285,0.272,0.151,0.093,south-southwest,6.3,No
2019/04/17,20:50,0.202,0.186,0.306,0.285,0.275,0.152,0.092,south-southwest,6.4,No
2019/04/17,21:00,0.201,0.186,0.304,0.285,0.274,0.151,0.092,south-southwest,6.8,No
2019/04/17,21:10,0.202,0.187,0.305,0.285,0.276,0.152,0.093,south,6.0,No
2019/04/17,21:20,0.200,0.186,0.305,0.286,0.275,0.152,0.092,south-southwest,6.2,No
2019/04/17,21:30,0.203,0.187,0.304,0.286,0.273,0.153,0.093,south,6.7,No
2019/04/17,21:40,0.203,0.187,0.305,0.286,0.278,0.152,0.092,south,6.6,No
2019/04/17,21:50,0.200,0.186,0.305,0.287,0.273,0.153,0.093,south-southwest,6.8,No
2019/04/17,22:00,0.202,0.187,0.305,0.284,0.274,0.153,0.093,south-southwest,6.2,No
2019/04/17,22:10,0.201,0.186,0.304,0.286,0.275,0.152,0.093,south-southwest,6.2,No
2019/04/17,22:20,0.201,0.187,0.304,0.285,0.274,0.152,0.092,south-southwest,6.0,No
2019/04/17,22:30,0.202,0.188,0.307,0.285,0.276,0.152,0.093,south-southwest,5.6,No
2019/04/17,22:40,0.202,0.187,0.304,0.286,0.274,0.153,0.093,south-southwest,5.0,No
2019/04/17,22:50,0.202,0.187,0.305,0.284,0.275,0.153,0.092,south-southwest,5.5,No
2019/04/17,23:00,0.202,0.187,0.305,0.286,0.275,0.154,0.093,south-southwest,5.2,No
2019/04/17,23:10,0.201,0.187,0.304,0.284,0.274,0.153,0.093,south-southwest,5.1,No
2019/04/17,23:20,0.203,0.187,0.307,0.285,0.275,0.152,0.093,south-southwest,4.8,No
2019/04/17,23:30,0.202,0.186,0.304,0.285,0.273,0.153,0.093,south-southwest,5.1,No
2019/04/17,23:40,0.202,0.186,0.305,0.284,0.275,0.153,0.094,south-southwest,4.9,No
2019/04/17,23:50,0.202,0.187,0.304,0.286,0.274,0.153,0.093,south-southwest,4.0,No
